• In United Kingdom
  • List of Countries
  • For 7 days
  • Water Temperature
  • Satellite Maps
  • Weather Map
  • Weather Widgets
  • user-avatar
    Login

    Hourly Weather Mostar

    Today, 23 October, Monday

    Time Temperature Precipitation Wind Pressure Humidity
    00:00 +17°C° 2.6 mm 6 mps 748 mmHg 89%
    01:00 +17°C° 2.6 mm 5 mps 748 mmHg 89%
    02:00 +17°C° 1.3 mm 4 mps 748 mmHg 89%
    03:00 +15°C° 1.3 mm 4 mps 747 mmHg 89%
    04:00 +16°C° 1.3 mm 3 mps 747 mmHg 89%
    05:00 +14°C° 1.4 mm 3 mps 747 mmHg 88%
    06:00 +14°C° 1.4 mm 3 mps 747 mmHg 86%
    07:00 +14°C° 1.4 mm 4 mps 747 mmHg 85%
    08:00 +14°C° 0.7 mm 4 mps 747 mmHg 80%
    09:00 +14°C° 0.7 mm 5 mps 748 mmHg 76%
    10:00 +14°C° 0.7 mm 6 mps 748 mmHg 72%
    11:00 +14°C° 0.4 mm 6 mps 748 mmHg 70%
    12:00 +14°C° 0.4 mm 7 mps 748 mmHg 68%
    13:00 +14°C° 0.4 mm 7 mps 748 mmHg 67%
    14:00 +12°C° 0.2 mm 7 mps 749 mmHg 66%
    15:00 +12°C° 0.2 mm 7 mps 749 mmHg 66%
    16:00 +11°C° 0.2 mm 7 mps 749 mmHg 66%
    17:00 +11°C° 0 mm 7 mps 749 mmHg 68%
    18:00 +11°C° 0 mm 7 mps 750 mmHg 69%
    19:00 +10°C° 0 mm 6 mps 750 mmHg 71%
    20:00 +10°C° 0 mm 7 mps 750 mmHg 71%
    21:00 +10°C° 0 mm 7 mps 750 mmHg 71%
    22:00 +10°C° 0 mm 7 mps 750 mmHg 72%
    23:00 +10°C° 0.1 mm 7 mps 750 mmHg 72%

    Tomorrow, 24 October, Tuesday

    Time Temperature Precipitation Wind Pressure Humidity
    00:00 +10°C° 0.1 mm 7 mps 750 mmHg 72%
    01:00 +10°C° 0.1 mm 7 mps 750 mmHg 72%
    02:00 +10°C° 0.1 mm 7 mps 750 mmHg 72%
    03:00 +10°C° 0.1 mm 7 mps 750 mmHg 72%
    04:00 +10°C° 0.1 mm 8 mps 750 mmHg 72%
    05:00 +10°C° 0 mm 8 mps 750 mmHg 72%
    06:00 +10°C° 0 mm 8 mps 751 mmHg 72%
    07:00 +11°C° 0 mm 8 mps 751 mmHg 72%
    08:00 +12°C° 0 mm 8 mps 751 mmHg 69%
    09:00 +12°C° 0 mm 9 mps 752 mmHg 65%
    10:00 +13°C° 0 mm 9 mps 752 mmHg 62%
    11:00 +15°C° 0 mm 9 mps 752 mmHg 62%
    12:00 +15°C° 0 mm 9 mps 752 mmHg 62%
    13:00 +15°C° 0 mm 8 mps 752 mmHg 61%
    14:00 +15°C° 0 mm 8 mps 752 mmHg 63%
    15:00 +13°C° 0 mm 8 mps 753 mmHg 65%
    16:00 +13°C° 0 mm 8 mps 753 mmHg 67%
    17:00 +13°C° 0 mm 8 mps 753 mmHg 68%
    18:00 +12°C° 0 mm 8 mps 753 mmHg 69%
    19:00 +12°C° 0 mm 8 mps 754 mmHg 70%
    20:00 +12°C° 0 mm 8 mps 754 mmHg 71%
    21:00 +11°C° 0 mm 7 mps 755 mmHg 72%
    22:00 +11°C° 0 mm 7 mps 755 mmHg 72%
    23:00 +11°C° 0 mm 7 mps 755 mmHg 73%

    Day after tomorrow, 25 October, Wednesday

    Time Temperature Precipitation Wind Pressure Humidity
    00:00 +11°C° 0 mm 7 mps 756 mmHg 73%
    01:00 +11°C° 0 mm 6 mps 756 mmHg 74%
    02:00 +11°C° 0 mm 6 mps 756 mmHg 74%
    03:00 +11°C° 0 mm 6 mps 756 mmHg 75%
    04:00 +11°C° 0 mm 6 mps 757 mmHg 76%
    05:00 +11°C° 0 mm 6 mps 757 mmHg 76%
    06:00 +12°C° 0 mm 5 mps 757 mmHg 77%
    07:00 +12°C° 0 mm 5 mps 758 mmHg 77%
    08:00 +13°C° 0 mm 5 mps 758 mmHg 73%
    09:00 +14°C° 0 mm 6 mps 759 mmHg 69%
    10:00 +15°C° 0 mm 6 mps 759 mmHg 65%
    11:00 +16°C° 0 mm 6 mps 759 mmHg 63%
    12:00 +17°C° 0 mm 6 mps 759 mmHg 61%
    13:00 +17°C° 0 mm 6 mps 759 mmHg 59%
    14:00 +17°C° 0 mm 5 mps 760 mmHg 61%
    15:00 +16°C° 0 mm 5 mps 760 mmHg 62%
    16:00 +17°C° 0 mm 4 mps 760 mmHg 63%
    17:00 +15°C° 0 mm 4 mps 760 mmHg 67%
    18:00 +14°C° 0 mm 3 mps 761 mmHg 70%
    19:00 +12°C° 0 mm 3 mps 761 mmHg 73%
    20:00 +12°C° 0 mm 3 mps 761 mmHg 74%
    21:00 +12°C° 0 mm 3 mps 762 mmHg 75%
    22:00 +11°C° 0 mm 3 mps 762 mmHg 75%
    23:00 +11°C° 0 mm 3 mps 762 mmHg 74%

    26 October, Thursday

    Time Temperature Precipitation Wind Pressure Humidity
    00:00 +11°C° 0 mm 3 mps 762 mmHg 73%
    01:00 +11°C° 0 mm 3 mps 762 mmHg 72%
    02:00 +11°C° 0 mm 3 mps 762 mmHg 69%
    03:00 +12°C° 0 mm 2 mps 762 mmHg 67%
    04:00 +12°C° 0 mm 2 mps 762 mmHg 64%
    05:00 +12°C° 0 mm 2 mps 762 mmHg 63%
    06:00 +12°C° 0 mm 2 mps 762 mmHg 61%
    07:00 +12°C° 0 mm 2 mps 763 mmHg 60%
    08:00 +15°C° 0 mm 2 mps 762 mmHg 54%
    09:00 +18°C° 0 mm 1 mps 762 mmHg 48%
    10:00 +21°C° 0 mm 1 mps 762 mmHg 42%
    11:00 +22°C° 0 mm 1 mps 762 mmHg 40%
    12:00 +23°C° 0 mm 1 mps 762 mmHg 39%
    13:00 +24°C° 0 mm 1 mps 761 mmHg 38%
    14:00 +23°C° 0 mm 1 mps 761 mmHg 44%
    15:00 +22°C° 0 mm 1 mps 761 mmHg 50%
    16:00 +21°C° 0 mm 1 mps 761 mmHg 56%
    17:00 +20°C° 0 mm 1 mps 761 mmHg 59%
    18:00 +19°C° 0 mm 1 mps 761 mmHg 61%
    19:00 +16°C° 0 mm 1 mps 761 mmHg 64%
    20:00 +16°C° 0 mm 1 mps 761 mmHg 64%
    21:00 +16°C° 0 mm 1 mps 761 mmHg 63%
    22:00 +16°C° 0 mm 1 mps 761 mmHg 63%
    23:00 +16°C° 0 mm 1 mps 761 mmHg 63%

    27 October, Friday

    Time Temperature Precipitation Wind Pressure Humidity
    00:00 +16°C° 0 mm 1 mps 760 mmHg 63%
    01:00 +15°C° 0 mm 1 mps 760 mmHg 62%
    02:00 +15°C° 0 mm 1 mps 759 mmHg 62%
    03:00 +15°C° 0 mm 1 mps 759 mmHg 62%
    04:00 +15°C° 0 mm 1 mps 758 mmHg 62%
    05:00 +15°C° 0 mm 1 mps 758 mmHg 62%
    06:00 +15°C° 0 mm 1 mps 758 mmHg 61%
    07:00 +15°C° 0 mm 1 mps 757 mmHg 61%
    08:00 +18°C° 0 mm 1 mps 757 mmHg 57%
    09:00 +20°C° 0 mm 1 mps 757 mmHg 53%
    10:00 +20°C° 0 mm 2 mps 756 mmHg 49%
    11:00 +21°C° 0 mm 2 mps 755 mmHg 48%
    12:00 +21°C° 0 mm 2 mps 755 mmHg 48%
    13:00 +23°C° 0 mm 2 mps 754 mmHg 48%
    14:00 +21°C° 0 mm 2 mps 753 mmHg 54%
    15:00 +20°C° 0 mm 2 mps 753 mmHg 59%
    16:00 +20°C° 0 mm 1 mps 753 mmHg 64%
    17:00 +19°C° 0 mm 1 mps 753 mmHg 69%
    18:00 +18°C° 0 mm 1 mps 753 mmHg 74%
    19:00 +15°C° 0 mm 1 mps 753 mmHg 79%
    20:00 +16°C° 0 mm 1 mps 753 mmHg 78%
    21:00 +16°C° 0 mm 1 mps 753 mmHg 77%
    22:00 +16°C° 0 mm 1 mps 754 mmHg 76%
    23:00 +16°C° 0 mm 2 mps 754 mmHg 75%

    28 October, Saturday

    Time Temperature Precipitation Wind Pressure Humidity
    00:00 +14°C° 0 mm 3 mps 754 mmHg 74%
    01:00 +14°C° 0 mm 4 mps 754 mmHg 73%
    02:00 +14°C° 0 mm 4 mps 754 mmHg 71%
    03:00 +13°C° 0 mm 4 mps 754 mmHg 69%
    04:00 +12°C° 0 mm 5 mps 754 mmHg 67%
    05:00 +12°C° 0 mm 4 mps 754 mmHg 69%
    06:00 +11°C° 0 mm 4 mps 754 mmHg 70%
    07:00 +11°C° 0 mm 4 mps 754 mmHg 72%
    08:00 +12°C° 0 mm 3 mps 754 mmHg 65%
    09:00 +14°C° 0 mm 3 mps 754 mmHg 58%
    10:00 +16°C° 0 mm 3 mps 754 mmHg 51%
    11:00 +17°C° 0 mm 3 mps 754 mmHg 45%
    12:00 +19°C° 0 mm 2 mps 753 mmHg 40%
    13:00 +21°C° 0 mm 1 mps 753 mmHg 34%
    14:00 +19°C° 0 mm 2 mps 752 mmHg 38%
    15:00 +18°C° 0 mm 2 mps 752 mmHg 42%
    16:00 +18°C° 0 mm 2 mps 752 mmHg 46%
    17:00 +17°C° 0 mm 2 mps 752 mmHg 48%
    18:00 +16°C° 0 mm 2 mps 752 mmHg 50%
    19:00 +15°C° 0 mm 1 mps 752 mmHg 51%
    20:00 +14°C° 0 mm 1 mps 752 mmHg 52%
    21:00 +14°C° 0 mm 1 mps 752 mmHg 52%
    22:00 +14°C° 0 mm 1 mps 752 mmHg 52%
    23:00 +14°C° 0 mm 1 mps 752 mmHg 53%
    Show more